Time,TemperatureF,DewpointF,PressureIn,WindDirection,WindDirectionDegrees,WindSpeedMPH,WindSpeedGustMPH,Humidity,HourlyPrecipIn,Conditions,Clouds,dailyrainin,SoftwareType,DateUTC
2013-09-06 00:03:00,68.4,59.8,30.05,SE,135,0.0,0.9,74,0.00,,,0.00,WUHU216HW,2013-09-06 05:03:00,
2013-09-06 00:08:00,68.4,60.2,30.05,SE,135,0.0,0.4,75,0.00,,,0.00,WUHU216HW,2013-09-06 05:08:00,
2013-09-06 00:13:00,68.4,60.2,30.05,SE,135,0.4,0.4,75,0.00,,,0.00,WUHU216HW,2013-09-06 05:13:00,
2013-09-06 00:18:00,68.4,60.2,30.05,SE,135,0.1,0.4,75,0.00,,,0.00,WUHU216HW,2013-09-06 05:18:00,
2013-09-06 00:23:00,68.4,60.2,30.05,SE,135,0.4,0.4,75,0.00,,,0.00,WUHU216HW,2013-09-06 05:23:00,
2013-09-06 00:28:00,68.4,60.6,30.04,SE,135,0.4,0.9,76,0.00,,,0.00,WUHU216HW,2013-09-06 05:28:00,
2013-09-06 00:33:00,68.4,60.6,30.04,SE,135,0.4,0.9,76,0.00,,,0.00,WUHU216HW,2013-09-06 05:33:00,
2013-09-06 00:38:00,68.6,60.8,30.05,ESE,113,0.4,0.9,76,0.00,,,0.00,WUHU216HW,2013-09-06 05:38:00,
2013-09-06 00:43:00,68.6,60.8,30.05,ESE,119,0.6,0.9,76,0.00,,,0.00,WUHU216HW,2013-09-06 05:43:00,
2013-09-06 00:48:00,68.6,60.8,30.05,ESE,113,0.2,1.3,76,0.00,,,0.00,WUHU216HW,2013-09-06 05:48:00,
2013-09-06 00:53:00,68.4,60.6,30.05,SE,135,1.1,1.3,76,0.00,,,0.00,WUHU216HW,2013-09-06 05:53:00,
2013-09-06 00:58:00,68.4,60.6,30.05,SE,135,0.4,1.1,76,0.00,,,0.00,WUHU216HW,2013-09-06 05:58:00,
2013-09-06 01:03:00,68.4,60.6,30.04,SE,135,0.9,0.9,76,0.00,,,0.00,WUHU216HW,2013-09-06 06:03:00,
2013-09-06 01:08:00,68.2,60.8,30.04,ESE,113,1.8,1.8,77,0.00,,,0.00,WUHU216HW,2013-09-06 06:08:00,
2013-09-06 01:13:00,68.0,60.6,30.05,SE,126,1.5,2.5,77,0.00,,,0.00,WUHU216HW,2013-09-06 06:13:00,
2013-09-06 01:18:00,68.0,60.6,30.05,ESE,122,1.4,3.4,77,0.00,,,0.00,WUHU216HW,2013-09-06 06:18:00,
2013-09-06 01:23:00,68.0,60.6,30.04,SE,135,1.8,3.4,77,0.00,,,0.00,WUHU216HW,2013-09-06 06:23:00,
2013-09-06 01:28:00,67.9,60.4,30.04,SE,135,0.9,3.4,77,0.00,,,0.00,WUHU216HW,2013-09-06 06:28:00,
2013-09-06 01:33:00,67.9,60.4,30.04,ESE,113,1.1,2.0,77,0.00,,,0.00,WUHU216HW,2013-09-06 06:33:00,
2013-09-06 01:38:00,67.7,60.2,30.04,SE,135,1.8,1.8,77,0.00,,,0.00,WUHU216HW,2013-09-06 06:38:00,
2013-09-06 01:43:00,67.7,60.2,30.04,SE,126,1.5,1.8,77,0.00,,,0.00,WUHU216HW,2013-09-06 06:43:00,
2013-09-06 01:48:00,67.7,60.2,30.04,ESE,117,1.4,1.8,77,0.00,,,0.00,WUHU216HW,2013-09-06 06:48:00,
2013-09-06 01:53:00,67.7,60.2,30.04,SE,135,1.0,1.8,77,0.00,,,0.00,WUHU216HW,2013-09-06 06:53:00,
2013-09-06 01:58:00,67.7,60.2,30.04,ESE,113,2.2,2.2,77,0.00,,,0.00,WUHU216HW,2013-09-06 06:58:00,
2013-09-06 02:03:00,67.7,60.7,30.04,ESE,113,1.6,2.2,78,0.00,,,0.00,WUHU216HW,2013-09-06 07:03:00,
2013-09-06 02:08:00,67.7,60.7,30.04,ESE,113,1.8,2.2,78,0.00,,,0.00,WUHU216HW,2013-09-06 07:08:00,
2013-09-06 02:13:00,67.5,60.5,30.04,SE,129,1.3,1.8,78,0.00,,,0.00,WUHU216HW,2013-09-06 07:13:00,
2013-09-06 02:18:00,67.5,60.5,30.04,ESE,113,2.5,2.5,78,0.00,,,0.00,WUHU216HW,2013-09-06 07:18:00,
2013-09-06 02:23:00,67.5,60.5,30.04,ESE,113,2.5,2.5,78,0.00,,,0.00,WUHU216HW,2013-09-06 07:23:00,
2013-09-06 02:28:00,67.5,60.5,30.04,ESE,113,1.3,2.5,78,0.00,,,0.00,WUHU216HW,2013-09-06 07:28:00,
2013-09-06 02:33:00,67.3,60.3,30.04,ESE,113,0.8,2.2,78,0.00,,,0.00,WUHU216HW,2013-09-06 07:33:00,
2013-09-06 02:38:00,67.3,60.3,30.04,ESE,113,0.6,1.1,78,0.00,,,0.00,WUHU216HW,2013-09-06 07:38:00,
2013-09-06 02:43:00,67.1,60.1,30.04,SE,135,0.4,0.9,78,0.00,,,0.00,WUHU216HW,2013-09-06 07:43:00,
2013-09-06 02:48:00,67.0,60.0,30.04,SE,135,0.0,0.9,78,0.00,,,0.00,WUHU216HW,2013-09-06 07:48:00,
2013-09-06 02:53:00,66.8,60.1,30.04,SE,135,0.0,0.4,79,0.00,,,0.00,WUHU216HW,2013-09-06 07:53:00,
2013-09-06 02:58:00,66.6,60.0,30.04,SE,135,0.0,0.0,79,0.00,,,0.00,WUHU216HW,2013-09-06 07:58:00,
2013-09-06 03:03:00,66.6,60.0,30.04,SE,135,0.0,0.0,79,0.00,,,0.00,WUHU216HW,2013-09-06 08:03:00,
2013-09-06 03:08:00,66.6,60.0,30.04,SE,135,0.0,0.0,79,0.00,,,0.00,WUHU216HW,2013-09-06 08:08:00,
2013-09-06 03:13:00,66.4,59.8,30.04,SE,135,0.0,0.0,79,0.00,,,0.00,WUHU216HW,2013-09-06 08:13:00,
2013-09-06 03:18:00,66.2,59.6,30.03,SE,135,0.0,0.0,79,0.00,,,0.00,WUHU216HW,2013-09-06 08:18:00,
2013-09-06 03:23:00,66.1,59.8,30.03,SE,135,0.0,0.0,80,0.00,,,0.00,WUHU216HW,2013-09-06 08:23:00,
2013-09-06 03:28:00,65.9,59.6,30.03,SE,135,0.0,0.0,80,0.00,,,0.00,WUHU216HW,2013-09-06 08:28:00,
2013-09-06 03:33:00,65.9,59.6,30.03,SE,135,0.0,0.0,80,0.00,,,0.00,WUHU216HW,2013-09-06 08:33:00,
2013-09-06 03:38:00,65.7,59.4,30.03,SE,135,0.0,0.2,80,0.00,,,0.00,WUHU216HW,2013-09-06 08:38:00,
2013-09-06 03:43:00,65.7,59.4,30.02,SE,135,0.0,0.2,80,0.00,,,0.00,WUHU216HW,2013-09-06 08:43:00,
2013-09-06 03:48:00,65.7,59.4,30.02,SE,135,0.0,0.0,80,0.00,,,0.00,WUHU216HW,2013-09-06 08:48:00,
2013-09-06 03:53:00,65.5,59.2,30.02,SE,135,0.0,0.0,80,0.00,,,0.00,WUHU216HW,2013-09-06 08:53:00,
2013-09-06 03:58:00,65.5,59.2,30.02,SE,135,0.0,0.0,80,0.00,,,0.00,WUHU216HW,2013-09-06 08:58:00,
2013-09-06 04:03:00,65.3,59.0,30.02,SE,135,0.0,0.0,80,0.00,,,0.00,WUHU216HW,2013-09-06 09:03:00,
2013-09-06 04:08:00,65.2,59.2,30.02,SE,135,0.0,0.0,81,0.00,,,0.00,WUHU216HW,2013-09-06 09:08:00,
2013-09-06 04:13:00,65.2,59.2,30.02,SE,135,0.0,0.0,81,0.00,,,0.00,WUHU216HW,2013-09-06 09:13:00,
2013-09-06 04:18:00,65.2,59.2,30.02,SE,135,0.0,0.0,81,0.00,,,0.00,WUHU216HW,2013-09-06 09:18:00,
2013-09-06 04:23:00,65.2,59.2,30.02,ESE,113,0.4,0.4,81,0.00,,,0.00,WUHU216HW,2013-09-06 09:23:00,
2013-09-06 04:28:00,65.0,59.1,30.02,ESE,113,0.0,0.4,81,0.00,,,0.00,WUHU216HW,2013-09-06 09:28:00,
2013-09-06 04:33:00,65.0,59.3,30.02,SE,135,0.4,0.4,82,0.00,,,0.00,WUHU216HW,2013-09-06 09:33:00,
2013-09-06 04:38:00,65.0,59.3,30.02,ESE,113,0.0,0.4,82,0.00,,,0.00,WUHU216HW,2013-09-06 09:38:00,
2013-09-06 04:43:00,64.8,59.2,30.02,ESE,113,0.0,0.4,82,0.00,,,0.00,WUHU216HW,2013-09-06 09:43:00,
2013-09-06 04:48:00,65.0,59.3,30.02,ESE,113,0.0,0.0,82,0.00,,,0.00,WUHU216HW,2013-09-06 09:48:00,
2013-09-06 04:53:00,64.8,59.2,30.02,ESE,113,0.0,0.0,82,0.00,,,0.00,WUHU216HW,2013-09-06 09:53:00,
2013-09-06 04:58:00,64.8,59.2,30.03,ESE,113,0.0,0.0,82,0.00,,,0.00,WUHU216HW,2013-09-06 09:58:00,
2013-09-06 05:03:00,64.6,59.1,30.02,ESE,113,0.0,0.0,82,0.00,,,0.00,WUHU216HW,2013-09-06 10:03:00,
2013-09-06 05:08:00,64.6,59.1,30.02,ESE,113,0.0,0.0,82,0.00,,,0.00,WUHU216HW,2013-09-06 10:08:00,
2013-09-06 05:13:00,64.4,58.9,30.03,ESE,113,0.0,0.0,82,0.00,,,0.00,WUHU216HW,2013-09-06 10:13:00,
2013-09-06 05:18:00,64.3,58.7,30.02,ESE,113,0.0,0.0,82,0.00,,,0.00,WUHU216HW,2013-09-06 10:18:00,
2013-09-06 05:23:00,64.3,58.7,30.03,ESE,113,0.0,0.0,82,0.00,,,0.00,WUHU216HW,2013-09-06 10:23:00,
2013-09-06 05:28:00,64.3,58.7,30.03,ESE,113,0.0,0.0,82,0.00,,,0.00,WUHU216HW,2013-09-06 10:28:00,
2013-09-06 05:33:00,64.3,58.7,30.03,ESE,113,0.0,0.0,82,0.00,,,0.00,WUHU216HW,2013-09-06 10:33:00,
2013-09-06 05:38:00,64.3,58.7,30.03,ESE,113,0.0,0.0,82,0.00,,,0.00,WUHU216HW,2013-09-06 10:38:00,
2013-09-06 05:43:00,64.1,58.5,30.03,ESE,113,0.0,0.0,82,0.00,,,0.00,WUHU216HW,2013-09-06 10:43:00,
2013-09-06 05:48:00,64.1,58.5,30.04,ESE,113,0.0,0.0,82,0.00,,,0.00,WUHU216HW,2013-09-06 10:48:00,
2013-09-06 05:53:00,63.9,58.3,30.04,ESE,113,0.0,0.0,82,0.00,,,0.00,WUHU216HW,2013-09-06 10:53:00,
2013-09-06 05:58:00,63.7,58.4,30.04,ESE,113,0.0,0.0,83,0.00,,,0.00,WUHU216HW,2013-09-06 10:58:00,
2013-09-06 06:03:00,63.7,58.4,30.04,ESE,113,0.0,0.0,83,0.00,,,0.00,WUHU216HW,2013-09-06 11:03:00,
2013-09-06 06:08:00,63.7,58.4,30.04,ESE,113,0.0,0.0,83,0.00,,,0.00,WUHU216HW,2013-09-06 11:08:00,
2013-09-06 06:13:00,63.5,58.2,30.04,ESE,113,0.0,0.0,83,0.00,,,0.00,WUHU216HW,2013-09-06 11:13:00,
2013-09-06 06:18:00,63.4,58.1,30.04,ESE,113,0.0,0.0,83,0.00,,,0.00,WUHU216HW,2013-09-06 11:18:00,
2013-09-06 06:23:00,63.2,57.9,30.04,ESE,113,0.0,0.0,83,0.00,,,0.00,WUHU216HW,2013-09-06 11:23:00,
2013-09-06 06:28:00,63.0,57.7,30.04,ESE,113,0.0,0.0,83,0.00,,,0.00,WUHU216HW,2013-09-06 11:28:00,
2013-09-06 06:33:00,63.0,57.7,30.04,ESE,113,0.0,0.0,83,0.00,,,0.00,WUHU216HW,2013-09-06 11:33:00,
2013-09-06 06:38:00,63.0,57.7,30.04,ESE,113,0.0,0.0,83,0.00,,,0.00,WUHU216HW,2013-09-06 11:38:00,
2013-09-06 06:43:00,62.8,57.9,30.04,ESE,113,0.0,0.0,84,0.00,,,0.00,WUHU216HW,2013-09-06 11:43:00,
2013-09-06 06:48:00,63.0,58.1,30.04,ESE,113,0.0,0.0,84,0.00,,,0.00,WUHU216HW,2013-09-06 11:48:00,
2013-09-06 06:53:00,63.0,58.1,30.04,ESE,113,0.0,0.0,84,0.00,,,0.00,WUHU216HW,2013-09-06 11:53:00,
2013-09-06 06:58:00,62.8,57.9,30.04,ESE,113,0.0,0.0,84,0.00,,,0.00,WUHU216HW,2013-09-06 11:58:00,
2013-09-06 07:03:00,62.8,57.9,30.04,NNE,23,0.0,0.2,84,0.00,,,0.00,WUHU216HW,2013-09-06 12:03:00,
2013-09-06 07:08:00,62.8,57.9,30.04,NNE,23,0.0,0.2,84,0.00,,,0.00,WUHU216HW,2013-09-06 12:08:00,
2013-09-06 07:13:00,62.8,57.9,30.05,NNE,23,0.0,0.0,84,0.00,,,0.00,WUHU216HW,2013-09-06 12:13:00,
2013-09-06 07:18:00,62.8,57.9,30.05,NNE,23,0.0,0.0,84,0.00,,,0.00,WUHU216HW,2013-09-06 12:18:00,
2013-09-06 07:23:00,62.8,58.2,30.05,East,90,0.0,0.4,85,0.00,,,0.00,WUHU216HW,2013-09-06 12:23:00,
2013-09-06 07:28:00,63.0,58.4,30.05,ESE,113,0.2,0.4,85,0.00,,,0.00,WUHU216HW,2013-09-06 12:28:00,
2013-09-06 07:33:00,63.2,58.6,30.05,East,90,0.0,0.4,85,0.00,,,0.00,WUHU216HW,2013-09-06 12:33:00,
2013-09-06 07:38:00,63.4,58.8,30.05,ESE,113,0.9,0.9,85,0.00,,,0.00,WUHU216HW,2013-09-06 12:38:00,
2013-09-06 07:43:00,63.7,59.1,30.05,East,90,0.9,0.9,85,0.00,,,0.00,WUHU216HW,2013-09-06 12:43:00,
2013-09-06 07:48:00,64.3,60.0,30.06,SE,132,1.3,2.2,86,0.00,,,0.00,WUHU216HW,2013-09-06 12:48:00,
2013-09-06 07:53:00,64.6,60.4,30.05,ESE,113,1.7,2.2,86,0.00,,,0.00,WUHU216HW,2013-09-06 12:53:00,
2013-09-06 07:58:00,64.8,60.2,30.05,ESE,113,0.8,1.8,85,0.00,,,0.00,WUHU216HW,2013-09-06 12:58:00,
2013-09-06 08:03:00,65.2,60.6,30.05,ESE,113,0.4,1.6,85,0.00,,,0.00,WUHU216HW,2013-09-06 13:03:00,
2013-09-06 08:08:00,65.3,61.0,30.05,SE,135,0.7,1.3,86,0.00,,,0.00,WUHU216HW,2013-09-06 13:08:00,
2013-09-06 08:13:00,65.7,61.4,30.05,ESE,113,0.4,1.1,86,0.00,,,0.00,WUHU216HW,2013-09-06 13:13:00,
2013-09-06 08:18:00,66.2,61.9,30.05,SE,135,0.4,1.1,86,0.00,,,0.00,WUHU216HW,2013-09-06 13:18:00,
2013-09-06 08:23:00,66.6,62.3,30.05,SE,135,0.9,1.1,86,0.00,,,0.00,WUHU216HW,2013-09-06 13:23:00,
2013-09-06 08:28:00,67.1,62.5,30.06,SE,145,1.0,1.1,85,0.00,,,0.00,WUHU216HW,2013-09-06 13:28:00,
2013-09-06 08:33:00,67.3,62.6,30.06,ESE,113,1.1,1.6,85,0.00,,,0.00,WUHU216HW,2013-09-06 13:33:00,
2013-09-06 08:38:00,67.7,62.6,30.06,East,86,1.4,1.8,84,0.00,,,0.00,WUHU216HW,2013-09-06 13:38:00,
2013-09-06 08:43:00,67.7,62.6,30.06,ESE,113,1.1,2.0,84,0.00,,,0.00,WUHU216HW,2013-09-06 13:43:00,
2013-09-06 08:48:00,67.7,62.6,30.06,East,80,1.2,2.5,84,0.00,,,0.00,WUHU216HW,2013-09-06 13:48:00,
2013-09-06 08:53:00,67.9,62.8,30.06,ESE,120,1.7,2.5,84,0.00,,,0.00,WUHU216HW,2013-09-06 13:53:00,
2013-09-06 08:58:00,68.4,63.4,30.06,SE,135,0.3,2.2,84,0.00,,,0.00,WUHU216HW,2013-09-06 13:58:00,
2013-09-06 09:03:00,69.3,64.3,30.06,SSE,151,0.8,2.2,84,0.00,,,0.00,WUHU216HW,2013-09-06 14:03:00,
2013-09-06 09:08:00,70.2,64.7,30.06,ENE,68,0.4,2.2,83,0.00,,,0.00,WUHU216HW,2013-09-06 14:08:00,
2013-09-06 09:13:00,70.9,65.2,30.06,East,90,1.8,1.8,82,0.00,,,0.00,WUHU216HW,2013-09-06 14:13:00,
2013-09-06 09:18:00,71.8,65.7,30.06,SSW,203,1.3,1.8,81,0.00,,,0.00,WUHU216HW,2013-09-06 14:18:00,
2013-09-06 09:23:00,72.4,65.9,30.06,ESE,113,1.6,2.2,80,0.00,,,0.00,WUHU216HW,2013-09-06 14:23:00,
2013-09-06 09:28:00,72.4,65.5,30.06,WNW,293,0.7,2.2,79,0.00,,,0.00,WUHU216HW,2013-09-06 14:28:00,
2013-09-06 09:33:00,72.4,65.5,30.06,ESE,113,1.6,1.8,79,0.00,,,0.00,WUHU216HW,2013-09-06 14:33:00,
2013-09-06 09:38:00,72.4,65.5,30.06,SSE,165,1.0,1.6,79,0.00,,,0.00,WUHU216HW,2013-09-06 14:38:00,
2013-09-06 09:43:00,72.5,65.7,30.06,East,90,1.3,1.3,79,0.00,,,0.00,WUHU216HW,2013-09-06 14:43:00,
2013-09-06 09:48:00,72.9,66.1,30.06,ENE,68,1.6,2.5,79,0.00,,,0.00,WUHU216HW,2013-09-06 14:48:00,
2013-09-06 09:53:00,73.3,66.4,30.06,ESE,105,1.3,2.5,79,0.00,,,0.00,WUHU216HW,2013-09-06 14:53:00,
2013-09-06 09:58:00,73.6,66.4,30.06,ESE,113,0.2,1.8,78,0.00,,,0.00,WUHU216HW,2013-09-06 14:58:00,
2013-09-06 10:03:00,74.2,66.9,30.06,WSW,248,1.8,1.8,78,0.00,,,0.00,WUHU216HW,2013-09-06 15:03:00,
2013-09-06 10:08:00,74.7,67.1,30.06,ESE,113,1.3,1.8,77,0.00,,,0.00,WUHU216HW,2013-09-06 15:08:00,
2013-09-06 10:13:00,75.2,66.8,30.06,SW,225,3.1,3.1,75,0.00,,,0.00,WUHU216HW,2013-09-06 15:13:00,
2013-09-06 10:18:00,75.8,66.9,30.06,SE,135,2.2,3.1,74,0.00,,,0.00,WUHU216HW,2013-09-06 15:18:00,
2013-09-06 10:23:00,76.0,67.1,30.06,ESE,113,0.4,3.1,74,0.00,,,0.00,WUHU216HW,2013-09-06 15:23:00,
2013-09-06 10:28:00,76.0,66.7,30.06,SSW,194,0.6,2.2,73,0.00,,,0.00,WUHU216HW,2013-09-06 15:28:00,
2013-09-06 10:33:00,76.0,66.7,30.06,WSW,237,1.0,1.6,73,0.00,,,0.00,WUHU216HW,2013-09-06 15:33:00,
2013-09-06 10:38:00,76.0,66.7,30.06,West,270,0.4,2.0,73,0.00,,,0.00,WUHU216HW,2013-09-06 15:38:00,
2013-09-06 10:43:00,76.0,66.7,30.06,South,180,0.9,2.0,73,0.00,,,0.00,WUHU216HW,2013-09-06 15:43:00,
2013-09-06 10:47:00,76.3,67.1,30.06,SW,225,0.6,1.8,73,0.00,,,0.00,WUHU216HW,2013-09-06 15:47:00,
2013-09-06 10:52:00,76.7,67.4,30.06,SE,135,0.9,1.1,73,0.00,,,0.00,WUHU216HW,2013-09-06 15:52:00,
2013-09-06 10:57:00,77.4,67.7,30.06,East,97,1.3,1.8,72,0.00,,,0.00,WUHU216HW,2013-09-06 15:57:00,
2013-09-06 11:02:00,77.9,67.8,30.06,South,180,0.6,2.5,71,0.00,,,0.00,WUHU216HW,2013-09-06 16:02:00,
2013-09-06 11:07:00,78.7,68.0,30.06,SE,135,1.1,2.7,70,0.00,,,0.00,WUHU216HW,2013-09-06 16:07:00,
2013-09-06 11:12:00,79.4,68.3,30.06,ESE,113,1.8,2.7,69,0.00,,,0.00,WUHU216HW,2013-09-06 16:12:00,
2013-09-06 11:17:00,79.9,68.4,30.06,SW,225,2.0,2.0,68,0.00,,,0.00,WUHU216HW,2013-09-06 16:17:00,
2013-09-06 11:22:00,80.3,68.3,30.07,SW,225,2.2,2.2,67,0.00,,,0.00,WUHU216HW,2013-09-06 16:22:00,
2013-09-06 11:27:00,80.3,67.9,30.07,SSW,197,1.5,2.5,66,0.00,,,0.00,WUHU216HW,2013-09-06 16:27:00,
2013-09-06 11:32:00,80.3,67.9,30.07,SSW,194,1.7,2.5,66,0.00,,,0.00,WUHU216HW,2013-09-06 16:32:00,
2013-09-06 11:37:00,81.0,68.6,30.06,ESE,113,2.0,2.0,66,0.00,,,0.00,WUHU216HW,2013-09-06 16:37:00,
2013-09-06 11:42:00,81.5,68.1,30.06,SW,225,3.1,3.1,64,0.00,,,0.00,WUHU216HW,2013-09-06 16:42:00,
2013-09-06 11:47:00,81.7,67.0,30.06,SSW,203,2.0,3.1,61,0.00,,,0.00,WUHU216HW,2013-09-06 16:47:00,
2013-09-06 11:52:00,81.5,67.7,30.06,SW,225,1.8,3.4,63,0.00,,,0.00,WUHU216HW,2013-09-06 16:52:00,
2013-09-06 11:57:00,81.7,67.9,30.06,WNW,293,2.5,3.4,63,0.00,,,0.00,WUHU216HW,2013-09-06 16:57:00,
2013-09-06 12:02:00,82.1,68.1,30.05,South,179,0.6,3.1,63,0.00,,,0.00,WUHU216HW,2013-09-06 17:02:00,
2013-09-06 12:07:00,82.4,68.0,30.05,SW,225,1.1,3.1,62,0.00,,,0.00,WUHU216HW,2013-09-06 17:07:00,
2013-09-06 12:12:00,83.0,68.1,30.05,ESE,113,2.5,3.4,61,0.00,,,0.00,WUHU216HW,2013-09-06 17:12:00,
2013-09-06 12:17:00,83.2,68.8,30.05,ESE,113,3.1,3.4,62,0.00,,,0.00,WUHU216HW,2013-09-06 17:17:00,
2013-09-06 12:22:00,83.2,68.3,30.04,SE,135,0.4,3.1,61,0.00,,,0.00,WUHU216HW,2013-09-06 17:22:00,
2013-09-06 12:27:00,83.9,69.5,30.04,SSW,203,0.7,2.7,62,0.00,,,0.00,WUHU216HW,2013-09-06 17:27:00,
2013-09-06 12:32:00,84.6,69.3,30.04,NE,45,3.1,3.1,60,0.00,,,0.00,WUHU216HW,2013-09-06 17:32:00,
2013-09-06 12:37:00,85.0,69.6,30.04,SE,139,1.2,3.1,60,0.00,,,0.00,WUHU216HW,2013-09-06 17:37:00,
2013-09-06 12:42:00,84.8,69.0,30.04,SE,127,1.5,3.1,59,0.00,,,0.00,WUHU216HW,2013-09-06 17:42:00,
2013-09-06 12:47:00,85.0,68.6,30.04,SSE,150,2.8,3.8,58,0.00,,,0.00,WUHU216HW,2013-09-06 17:47:00,
2013-09-06 12:52:00,84.8,68.4,30.04,WSW,248,2.0,3.8,58,0.00,,,0.00,WUHU216HW,2013-09-06 17:52:00,
2013-09-06 12:57:00,84.6,67.7,30.04,SE,135,1.1,2.0,57,0.00,,,0.00,WUHU216HW,2013-09-06 17:57:00,
2013-09-06 13:02:00,84.6,67.1,30.04,ESE,113,2.2,2.9,56,0.00,,,0.00,WUHU216HW,2013-09-06 18:02:00,
2013-09-06 13:07:00,84.2,66.3,30.03,South,180,1.0,2.9,55,0.00,,,0.00,WUHU216HW,2013-09-06 18:07:00,
2013-09-06 13:12:00,83.5,64.1,30.03,NW,315,1.1,2.0,52,0.00,,,0.00,WUHU216HW,2013-09-06 18:12:00,
2013-09-06 13:17:00,83.0,65.1,30.03,ESE,113,1.1,2.0,55,0.00,,,0.00,WUHU216HW,2013-09-06 18:17:00,
2013-09-06 13:22:00,83.2,64.2,30.03,SW,233,2.7,3.6,53,0.00,,,0.00,WUHU216HW,2013-09-06 18:22:00,
2013-09-06 13:27:00,83.5,63.6,30.03,WSW,248,1.8,3.6,51,0.00,,,0.00,WUHU216HW,2013-09-06 18:27:00,
2013-09-06 13:32:00,83.5,65.1,30.03,NE,45,1.1,3.1,54,0.00,,,0.00,WUHU216HW,2013-09-06 18:32:00,
2013-09-06 13:37:00,83.5,64.5,30.02,SW,225,1.3,3.1,53,0.00,,,0.00,WUHU216HW,2013-09-06 18:37:00,
2013-09-06 13:42:00,84.1,65.6,30.02,WSW,248,2.0,2.5,54,0.00,,,0.00,WUHU216HW,2013-09-06 18:42:00,
2013-09-06 13:47:00,84.6,65.6,30.02,North,0,2.0,2.0,53,0.00,,,0.00,WUHU216HW,2013-09-06 18:47:00,
2013-09-06 13:52:00,84.6,64.5,30.02,NNE,23,1.8,2.0,51,0.00,,,0.00,WUHU216HW,2013-09-06 18:52:00,
2013-09-06 13:57:00,84.8,65.3,30.01,WSW,248,1.8,2.0,52,0.00,,,0.00,WUHU216HW,2013-09-06 18:57:00,
2013-09-06 14:02:00,85.0,64.9,30.01,SE,135,1.3,2.0,51,0.00,,,0.00,WUHU216HW,2013-09-06 19:02:00,
2013-09-06 14:07:00,85.1,66.6,30.01,SSE,158,2.7,2.7,54,0.00,,,0.00,WUHU216HW,2013-09-06 19:07:00,
2013-09-06 14:12:00,85.5,67.0,30.01,ESE,113,1.4,2.7,54,0.00,,,0.00,WUHU216HW,2013-09-06 19:12:00,
2013-09-06 14:17:00,85.3,65.7,30.01,NNE,23,1.1,2.5,52,0.00,,,0.00,WUHU216HW,2013-09-06 19:17:00,
2013-09-06 14:22:00,85.3,65.7,30.00,SSW,203,1.6,1.8,52,0.00,,,0.00,WUHU216HW,2013-09-06 19:22:00,
2013-09-06 14:27:00,85.5,64.3,30.00,SW,225,2.9,3.1,49,0.00,,,0.00,WUHU216HW,2013-09-06 19:27:00,
2013-09-06 14:32:00,85.3,63.5,30.00,SW,225,1.6,4.3,48,0.00,,,0.00,WUHU216HW,2013-09-06 19:32:00,
2013-09-06 14:37:00,85.1,64.5,30.00,ESE,113,1.8,4.3,50,0.00,,,0.00,WUHU216HW,2013-09-06 19:37:00,
2013-09-06 14:42:00,85.5,64.9,29.99,SSE,153,1.9,2.9,50,0.00,,,0.00,WUHU216HW,2013-09-06 19:42:00,
2013-09-06 14:47:00,85.9,63.9,29.99,NNE,23,0.7,2.7,48,0.00,,,0.00,WUHU216HW,2013-09-06 19:47:00,
2013-09-06 14:52:00,85.7,65.0,29.99,SE,135,0.4,1.8,50,0.00,,,0.00,WUHU216HW,2013-09-06 19:52:00,
2013-09-06 14:57:00,85.7,65.5,30.00,SSE,158,1.1,2.2,51,0.00,,,0.00,WUHU216HW,2013-09-06 19:57:00,
2013-09-06 15:02:00,85.9,63.9,29.99,South,185,3.2,4.0,48,0.00,,,0.00,WUHU216HW,2013-09-06 20:02:00,
2013-09-06 15:07:00,86.0,64.1,29.99,WSW,248,2.5,4.0,48,0.00,,,0.00,WUHU216HW,2013-09-06 20:07:00,
2013-09-06 15:12:00,86.0,64.1,29.99,SSW,203,2.5,2.9,48,0.00,,,0.00,WUHU216HW,2013-09-06 20:12:00,
2013-09-06 15:17:00,86.0,63.5,29.98,WSW,237,1.7,2.9,47,0.00,,,0.00,WUHU216HW,2013-09-06 20:17:00,
2013-09-06 15:22:00,85.9,62.0,29.98,West,270,4.5,4.5,45,0.00,,,0.00,WUHU216HW,2013-09-06 20:22:00,
2013-09-06 15:27:00,86.0,62.2,29.98,SW,225,3.3,4.5,45,0.00,,,0.00,WUHU216HW,2013-09-06 20:27:00,
2013-09-06 15:32:00,86.0,64.1,29.98,SE,135,1.1,4.0,48,0.00,,,0.00,WUHU216HW,2013-09-06 20:32:00,
2013-09-06 15:37:00,86.0,64.1,29.98,SSW,203,1.1,2.7,48,0.00,,,0.00,WUHU216HW,2013-09-06 20:37:00,
2013-09-06 15:42:00,86.6,64.5,29.98,South,173,0.6,2.2,48,0.00,,,0.00,WUHU216HW,2013-09-06 20:42:00,
2013-09-06 15:47:00,86.6,63.9,29.97,SW,225,1.9,2.7,47,0.00,,,0.00,WUHU216HW,2013-09-06 20:47:00,
2013-09-06 15:52:00,86.8,64.7,29.97,ENE,68,2.0,2.7,48,0.00,,,0.00,WUHU216HW,2013-09-06 20:52:00,
2013-09-06 15:57:00,86.8,64.1,29.97,SE,135,0.6,2.0,47,0.00,,,0.00,WUHU216HW,2013-09-06 20:57:00,
2013-09-06 16:02:00,86.4,64.5,29.97,SSW,203,1.6,2.2,48,0.00,,,0.00,WUHU216HW,2013-09-06 21:02:00,
2013-09-06 16:07:00,86.2,64.9,29.97,SSW,203,1.3,2.2,49,0.00,,,0.00,WUHU216HW,2013-09-06 21:07:00,
2013-09-06 16:12:00,86.0,64.7,29.97,WSW,248,1.3,2.0,49,0.00,,,0.00,WUHU216HW,2013-09-06 21:12:00,
2013-09-06 16:17:00,86.0,60.9,29.96,SW,225,6.3,6.3,43,0.00,,,0.00,WUHU216HW,2013-09-06 21:17:00,
2013-09-06 16:22:00,86.2,63.0,29.96,SW,225,1.6,6.3,46,0.00,,,0.00,WUHU216HW,2013-09-06 21:22:00,
2013-09-06 16:27:00,86.4,63.2,29.96,South,179,0.6,3.8,46,0.00,,,0.00,WUHU216HW,2013-09-06 21:27:00,
2013-09-06 16:32:00,86.4,61.9,29.96,SW,218,4.0,5.4,44,0.00,,,0.00,WUHU216HW,2013-09-06 21:32:00,
2013-09-06 16:37:00,86.4,60.7,29.96,SW,225,5.8,5.8,42,0.00,,,0.00,WUHU216HW,2013-09-06 21:37:00,
2013-09-06 16:42:00,86.0,61.6,29.96,WNW,293,2.5,5.8,44,0.00,,,0.00,WUHU216HW,2013-09-06 21:42:00,
2013-09-06 16:47:00,86.0,62.8,29.96,ENE,68,1.8,5.1,46,0.00,,,0.00,WUHU216HW,2013-09-06 21:47:00,
2013-09-06 16:52:00,86.2,63.6,29.96,East,90,1.6,2.5,47,0.00,,,0.00,WUHU216HW,2013-09-06 21:52:00,
2013-09-06 16:57:00,86.2,63.6,29.96,SW,225,2.0,2.9,47,0.00,,,0.00,WUHU216HW,2013-09-06 21:57:00,
2013-09-06 17:02:00,86.2,63.6,29.96,WNW,286,1.1,5.4,47,0.00,,,0.00,WUHU216HW,2013-09-06 22:02:00,
2013-09-06 17:07:00,86.0,62.2,29.96,WSW,248,3.1,5.4,45,0.00,,,0.00,WUHU216HW,2013-09-06 22:07:00,
2013-09-06 17:12:00,86.0,62.8,29.96,SW,220,2.7,4.3,46,0.00,,,0.00,WUHU216HW,2013-09-06 22:12:00,
2013-09-06 17:17:00,85.9,63.3,29.95,SE,135,1.5,4.3,47,0.00,,,0.00,WUHU216HW,2013-09-06 22:17:00,
2013-09-06 17:22:00,85.7,63.1,29.95,SE,135,0.9,1.8,47,0.00,,,0.00,WUHU216HW,2013-09-06 22:22:00,
2013-09-06 17:27:00,85.5,63.6,29.95,SW,222,1.5,2.5,48,0.00,,,0.00,WUHU216HW,2013-09-06 22:27:00,
2013-09-06 17:32:00,85.5,63.6,29.95,SW,225,2.2,2.7,48,0.00,,,0.00,WUHU216HW,2013-09-06 22:32:00,
2013-09-06 17:37:00,85.5,63.6,29.95,ESE,113,0.7,2.7,48,0.00,,,0.00,WUHU216HW,2013-09-06 22:37:00,
2013-09-06 17:42:00,85.3,63.5,29.95,East,90,1.5,2.2,48,0.00,,,0.00,WUHU216HW,2013-09-06 22:42:00,
2013-09-06 17:47:00,85.1,63.9,29.95,South,180,1.0,2.0,49,0.00,,,0.00,WUHU216HW,2013-09-06 22:47:00,
2013-09-06 17:52:00,85.0,64.4,29.95,East,90,0.7,1.1,50,0.00,,,0.00,WUHU216HW,2013-09-06 22:52:00,
2013-09-06 17:57:00,84.8,64.2,29.95,East,90,1.1,1.8,50,0.00,,,0.00,WUHU216HW,2013-09-06 22:57:00,
2013-09-06 18:02:00,84.6,64.1,29.95,SE,129,0.8,1.8,50,0.00,,,0.00,WUHU216HW,2013-09-06 23:02:00,
2013-09-06 18:07:00,84.4,63.3,29.95,ESE,113,0.8,1.3,49,0.00,,,0.00,WUHU216HW,2013-09-06 23:07:00,
2013-09-06 18:12:00,84.1,63.5,29.95,East,90,1.1,1.1,50,0.00,,,0.00,WUHU216HW,2013-09-06 23:12:00,
2013-09-06 18:17:00,83.9,63.4,29.95,East,90,0.7,1.1,50,0.00,,,0.00,WUHU216HW,2013-09-06 23:17:00,
2013-09-06 18:22:00,83.5,63.6,29.95,East,90,0.4,1.1,51,0.00,,,0.00,WUHU216HW,2013-09-06 23:22:00,
2013-09-06 18:27:00,83.2,63.2,29.95,ESE,113,0.4,1.1,51,0.00,,,0.00,WUHU216HW,2013-09-06 23:27:00,
2013-09-06 18:32:00,82.8,63.4,29.95,ESE,113,0.1,1.6,52,0.00,,,0.00,WUHU216HW,2013-09-06 23:32:00,
2013-09-06 18:37:00,82.6,63.6,29.95,ESE,113,0.0,1.6,53,0.00,,,0.00,WUHU216HW,2013-09-06 23:37:00,
2013-09-06 18:42:00,82.4,63.5,29.95,ESE,113,0.7,0.7,53,0.00,,,0.00,WUHU216HW,2013-09-06 23:42:00,
2013-09-06 18:47:00,82.1,63.7,29.95,ESE,113,0.2,0.7,54,0.00,,,0.00,WUHU216HW,2013-09-06 23:47:00,
2013-09-06 18:52:00,81.7,63.4,29.95,ESE,113,0.4,0.4,54,0.00,,,0.00,WUHU216HW,2013-09-06 23:52:00,
2013-09-06 18:57:00,81.5,63.2,29.94,ESE,113,0.2,0.4,54,0.00,,,0.00,WUHU216HW,2013-09-06 23:57:00,
2013-09-06 19:02:00,81.2,63.4,29.94,ESE,113,0.2,0.4,55,0.00,,,0.00,WUHU216HW,2013-09-07 00:02:00,
2013-09-06 19:07:00,81.0,63.3,29.94,ESE,113,0.0,0.4,55,0.00,,,0.00,WUHU216HW,2013-09-07 00:07:00,
2013-09-06 19:12:00,80.6,62.9,29.94,ESE,113,0.0,0.4,55,0.00,,,0.00,WUHU216HW,2013-09-07 00:12:00,
2013-09-06 19:17:00,80.3,63.1,29.94,ESE,113,0.0,0.0,56,0.00,,,0.00,WUHU216HW,2013-09-07 00:17:00,
2013-09-06 19:22:00,79.7,62.7,29.94,ESE,113,0.0,0.0,56,0.00,,,0.00,WUHU216HW,2013-09-07 00:22:00,
2013-09-06 19:27:00,79.4,62.8,29.94,ESE,113,0.0,0.0,57,0.00,,,0.00,WUHU216HW,2013-09-07 00:27:00,
2013-09-06 19:32:00,79.0,62.5,29.94,ESE,113,0.0,0.0,57,0.00,,,0.00,WUHU216HW,2013-09-07 00:32:00,
2013-09-06 19:37:00,78.7,62.6,29.94,ESE,113,0.0,0.0,58,0.00,,,0.00,WUHU216HW,2013-09-07 00:37:00,
2013-09-06 19:42:00,78.3,62.4,29.94,ESE,113,0.2,0.2,58,0.00,,,0.00,WUHU216HW,2013-09-07 00:42:00,
2013-09-06 19:47:00,77.9,62.0,29.94,ESE,113,0.0,0.2,58,0.00,,,0.00,WUHU216HW,2013-09-07 00:47:00,
2013-09-06 19:52:00,77.6,62.1,29.94,ESE,113,0.0,0.2,59,0.00,,,0.00,WUHU216HW,2013-09-07 00:52:00,
2013-09-06 19:57:00,77.4,61.9,29.94,ESE,113,0.0,0.0,59,0.00,,,0.00,WUHU216HW,2013-09-07 00:57:00,
2013-09-06 20:02:00,77.0,62.1,29.94,ESE,113,0.0,0.0,60,0.00,,,0.00,WUHU216HW,2013-09-07 01:02:00,
2013-09-06 20:07:00,76.7,61.7,29.93,ESE,113,0.0,0.0,60,0.00,,,0.00,WUHU216HW,2013-09-07 01:07:00,
2013-09-06 20:12:00,76.5,61.7,29.93,ESE,113,0.0,0.0,60,0.00,,,0.00,WUHU216HW,2013-09-07 01:12:00,
2013-09-06 20:17:00,76.3,61.9,29.94,ESE,113,0.0,0.0,61,0.00,,,0.00,WUHU216HW,2013-09-07 01:17:00,
2013-09-06 20:22:00,76.0,61.6,29.93,ESE,113,0.0,0.0,61,0.00,,,0.00,WUHU216HW,2013-09-07 01:22:00,
2013-09-06 20:27:00,75.8,61.8,29.94,ESE,113,0.0,0.0,62,0.00,,,0.00,WUHU216HW,2013-09-07 01:27:00,
2013-09-06 20:32:00,75.6,61.7,29.94,SE,135,0.4,0.7,62,0.00,,,0.00,WUHU216HW,2013-09-07 01:32:00,
2013-09-06 20:37:00,75.4,61.5,29.94,ESE,113,0.8,0.9,62,0.00,,,0.00,WUHU216HW,2013-09-07 01:37:00,
2013-09-06 20:42:00,75.2,61.7,29.94,SE,135,0.9,0.9,63,0.00,,,0.00,WUHU216HW,2013-09-07 01:42:00,
2013-09-06 20:47:00,75.1,61.6,29.94,ESE,113,1.7,2.2,63,0.00,,,0.00,WUHU216HW,2013-09-07 01:47:00,
2013-09-06 20:52:00,74.9,61.5,29.94,SE,135,0.3,2.2,63,0.00,,,0.00,WUHU216HW,2013-09-07 01:52:00,
2013-09-06 20:57:00,74.7,61.7,29.94,ESE,113,1.4,1.8,64,0.00,,,0.00,WUHU216HW,2013-09-07 01:57:00,
2013-09-06 21:02:00,74.5,61.6,29.94,SE,135,2.0,2.0,64,0.00,,,0.00,WUHU216HW,2013-09-07 02:02:00,
2013-09-06 21:07:00,74.3,61.8,29.94,SE,135,1.2,2.0,65,0.00,,,0.00,WUHU216HW,2013-09-07 02:07:00,
2013-09-06 21:12:00,74.2,61.7,29.94,SE,135,1.0,1.3,65,0.00,,,0.00,WUHU216HW,2013-09-07 02:12:00,
2013-09-06 21:17:00,74.0,61.5,29.94,SE,135,0.8,1.1,65,0.00,,,0.00,WUHU216HW,2013-09-07 02:17:00,
2013-09-06 21:22:00,73.8,61.8,29.94,ESE,113,1.5,1.8,66,0.00,,,0.00,WUHU216HW,2013-09-07 02:22:00,
2013-09-06 21:27:00,73.8,61.8,29.94,ESE,113,1.7,2.2,66,0.00,,,0.00,WUHU216HW,2013-09-07 02:27:00,
2013-09-06 21:32:00,73.6,61.6,29.94,SE,135,1.9,2.2,66,0.00,,,0.00,WUHU216HW,2013-09-07 02:32:00,
2013-09-06 21:37:00,73.4,61.4,29.94,ESE,113,1.5,2.0,66,0.00,,,0.00,WUHU216HW,2013-09-07 02:37:00,
2013-09-06 21:42:00,73.3,61.7,29.94,ESE,113,2.2,2.2,67,0.00,,,0.00,WUHU216HW,2013-09-07 02:42:00,
2013-09-06 21:47:00,73.1,61.5,29.94,SE,127,1.9,2.5,67,0.00,,,0.00,WUHU216HW,2013-09-07 02:47:00,
2013-09-06 21:52:00,73.1,61.9,29.94,ESE,113,1.3,2.5,68,0.00,,,0.00,WUHU216HW,2013-09-07 02:52:00,
2013-09-06 21:57:00,72.9,61.7,29.95,ESE,113,1.1,1.3,68,0.00,,,0.00,WUHU216HW,2013-09-07 02:57:00,
2013-09-06 22:02:00,72.7,61.6,29.95,ESE,113,1.5,2.0,68,0.00,,,0.00,WUHU216HW,2013-09-07 03:02:00,
2013-09-06 22:07:00,72.5,61.8,29.95,SE,135,2.2,2.2,69,0.00,,,0.00,WUHU216HW,2013-09-07 03:07:00,
2013-09-06 22:12:00,72.4,61.7,29.95,ESE,113,1.1,2.2,69,0.00,,,0.00,WUHU216HW,2013-09-07 03:12:00,
2013-09-06 22:17:00,72.4,61.7,29.95,SE,135,1.3,1.8,69,0.00,,,0.00,WUHU216HW,2013-09-07 03:17:00,
2013-09-06 22:22:00,72.2,61.9,29.95,ESE,113,1.6,2.0,70,0.00,,,0.00,WUHU216HW,2013-09-07 03:22:00,
2013-09-06 22:27:00,72.2,61.9,29.95,SE,135,3.1,3.1,70,0.00,,,0.00,WUHU216HW,2013-09-07 03:27:00,
2013-09-06 22:32:00,72.0,62.1,29.95,ESE,113,0.9,3.1,71,0.00,,,0.00,WUHU216HW,2013-09-07 03:32:00,
2013-09-06 22:37:00,71.8,61.6,29.95,ESE,123,1.2,1.8,70,0.00,,,0.00,WUHU216HW,2013-09-07 03:37:00,
2013-09-06 22:42:00,71.6,61.4,29.94,SE,135,2.0,2.0,70,0.00,,,0.00,WUHU216HW,2013-09-07 03:42:00,
2013-09-06 22:47:00,71.6,61.4,29.94,ESE,113,0.7,2.0,70,0.00,,,0.00,WUHU216HW,2013-09-07 03:47:00,
2013-09-06 22:52:00,71.5,61.2,29.94,ESE,113,1.3,1.3,70,0.00,,,0.00,WUHU216HW,2013-09-07 03:52:00,
2013-09-06 22:57:00,71.5,61.2,29.95,ESE,113,1.6,1.6,70,0.00,,,0.00,WUHU216HW,2013-09-07 03:57:00,
2013-09-06 23:01:00,71.3,61.0,29.95,ESE,113,1.3,1.6,70,0.00,,,0.00,WUHU216HW,2013-09-07 04:01:00,
2013-09-06 23:02:00,71.3,61.0,29.95,ESE,113,1.0,1.6,70,0.00,,,0.00,WUHU216HW,2013-09-07 04:02:00,
2013-09-06 23:07:00,71.3,61.0,29.95,SE,135,1.7,2.0,70,0.00,,,0.00,WUHU216HW,2013-09-07 04:07:00,
2013-09-06 23:12:00,71.1,61.2,29.95,ESE,113,0.7,2.0,71,0.00,,,0.00,WUHU216HW,2013-09-07 04:12:00,
2013-09-06 23:17:00,71.1,61.2,29.95,ESE,119,0.6,1.6,71,0.00,,,0.00,WUHU216HW,2013-09-07 04:17:00,
2013-09-06 23:22:00,70.9,61.0,29.95,ESE,113,1.1,1.1,71,0.00,,,0.00,WUHU216HW,2013-09-07 04:22:00,
2013-09-06 23:27:00,70.7,60.8,29.95,SE,135,0.6,1.1,71,0.00,,,0.00,WUHU216HW,2013-09-07 04:27:00,
2013-09-06 23:32:00,70.6,60.7,29.95,SE,135,0.4,0.7,71,0.00,,,0.00,WUHU216HW,2013-09-07 04:32:00,
2013-09-06 23:37:00,70.4,60.8,29.95,ESE,113,0.4,0.7,72,0.00,,,0.00,WUHU216HW,2013-09-07 04:37:00,
2013-09-06 23:42:00,70.2,60.7,29.95,ESE,113,1.1,1.1,72,0.00,,,0.00,WUHU216HW,2013-09-07 04:42:00,
2013-09-06 23:47:00,70.2,60.7,29.95,ESE,113,0.7,1.1,72,0.00,,,0.00,WUHU216HW,2013-09-07 04:47:00,
2013-09-06 23:52:00,70.0,60.5,29.95,SE,135,0.0,1.1,72,0.00,,,0.00,WUHU216HW,2013-09-07 04:52:00,
2013-09-06 23:57:00,70.0,60.9,29.95,ESE,113,0.4,0.9,73,0.00,,,0.00,WUHU216HW,2013-09-07 04:57:00,